Weather in Mostiska

Ukraine / Lviv District     49°47′31″N   23°09′05″E
temp.,
°C
wind,
m/s
gust,
m/s
humid.,
%
clouds,
%
prec.,
mm/h
press.,
hPa
HPBL,
m
8 august, mon
mon800:00+17ese2464100 0.0 1022145
03:00+17ene2464100 0.0 1021157
06:00+16ene255897 0.0 1021223
09:00+18e345496 0.0 1022460
12:00+23e445298 0.0 10221234
15:00+23e4454100 0.0 10211509
18:00+22ene5561100 0.1 10211014
21:00+20ne4762100 0.1 1022379
9 august, tue
tue900:00+18ene3769100 0.0 1023264
03:00+17ne3672100 0.0 1023239
06:00+16ne3780100 0.1 1023232
09:00+16ne3783100 0.3 1024291
12:00+16ne4783100 0.1 1024352
15:00+17ene4778100 0.1 1024484
18:00+18ese4669100 0.1 1023467
21:00+16ene2379100 0.1 102496
10 august, wed
wed1000:00+15ese2281100 0.0 102459
03:00+15nne1180100 0.0 102419
06:00+13nnw228614 0.0 102418
09:00+18nne356081 0.0 1024456
12:00+22ene454337 0.0 10231512
15:00+24ne563367 0.0 10222418
18:00+23ne4637100 0.0 10221265
21:00+19ene2449100 0.0 102296
11 august, thu
thu1100:00+16ene356199 0.0 1023109
03:00+16ne126848 0.0 102227
06:00+14ene117882 0.1 102212
09:00+18ene2467100 0.1 1023379
12:00+18ne346369 0.1 1023429
15:00+23ene6640100 0.4 10212108
18:00+23ne8838100 0.0 10211552
21:00+19e4853100 0.0 1021282
12 august, fri
fri1200:00+15ese117499 0.0 102112
03:00+16nne1166100 0.0 102012
06:00+13ene22871 0.0 102016
09:00+19e247234 0.0 1020420
12:00+25e45526 0.0 10191170
15:00+28e664297 0.0 10172270
18:00+22e6117362 1.4 1018415
21:00+19ese378897 2.3 1018132